This is the latest recevied weather packets stored in our database for station/object KD9IXX-13. If no packets are shown the sender has not sent any weather packets the latest 10 day(s).
| Time | Temp. | Humidity | Pressure | Rain* | Wind** | Luminosity | Snow |
|---|---|---|---|---|---|---|---|
| 1787774102 | 28.89° C | 62% | 1014.2 hPa | 0 mm | - | 173 W/m² | - |
| 1787773802 | 28.33° C | 63% | 1014.2 hPa | 0 mm | - | 643 W/m² | - |
| 1787773502 | 28.89° C | 61% | 1014.2 hPa | 0 mm | - | 198 W/m² | - |
| 1787772902 | 28.89° C | 64% | 1014.1 hPa | 0 mm | - | 158 W/m² | - |
| 1787772602 | 28.89° C | 61% | 1014.2 hPa | 0 mm | - | 654 W/m² | - |
| 1787771402 | 27.78° C | 65% | 1013.9 hPa | 0 mm | - | 445 W/m² | - |
| 1787771102 | 28.33° C | 67% | 1014.2 hPa | 0 mm | - | 668 W/m² | - |
| 1787769902 | 27.22° C | 69% | 1014.2 hPa | 0 mm | - | 168 W/m² | - |
| 1787768702 | 27.78° C | 68% | 1014.3 hPa | 0 mm | - | 170 W/m² | - |
| 1787768402 | 28.33° C | 70% | 1014.4 hPa | 0 mm | - | 744 W/m² | - |
| 1787767502 | 27.22° C | 69% | 1014.6 hPa | 0 mm | - | 681 W/m² | - |
| 1787766902 | 27.22° C | 68% | 1014.5 hPa | 0 mm | - | 290 W/m² | - |
| 1787766602 | 27.22° C | 72% | 1014.4 hPa | 0 mm | - | 191 W/m² | - |
| 1787766002 | 27.78° C | 69% | 1014.6 hPa | 0 mm | - | 236 W/m² | - |
| 1787765102 | 27.78° C | 71% | 1014.6 hPa | 0 mm | - | 674 W/m² | - |
| 1787764802 | 27.78° C | 70% | 1014.8 hPa | 0 mm | - | 625 W/m² | - |
| 1787764202 | 27.78° C | 71% | 1014.8 hPa | 0 mm | - | 640 W/m² | - |
| 1787763602 | 27.22° C | 73% | 1014.9 hPa | 0 mm | - | 630 W/m² | - |
| 1787763302 | 27.22° C | 75% | 1014.9 hPa | 0 mm | - | 652 W/m² | - |
| 1787762102 | 27.22° C | 76% | 1015 hPa | 0 mm | - | 632 W/m² | - |
| 1787761802 | 26.67° C | 76% | 1015.1 hPa | 0 mm | - | 661 W/m² | - |
| 1787761502 | 26.67° C | 76% | 1015.1 hPa | 0 mm | - | 644 W/m² | - |
| 1787761202 | 26.67° C | 75% | 1015.1 hPa | 0 mm | - | 633 W/m² | - |
| 1787760602 | 26.67° C | 76% | 1014.9 hPa | 0 mm | - | 636 W/m² | - |
| 1787760302 | 27.22° C | 76% | 1014.9 hPa | 0 mm | - | 644 W/m² | - |
* Rain latest hour (hover to see other rain measurements)
** Current wind speed in m/s (hover to see current wind gust speed)